Weather History for Zanesville, OH

Change the Weather History Date:

Saturday, December 15, 2012

  Actual Average Record
Temperature  
Mean Temperature 40 °F 32 °F  
Max Temperature 50 °F 40 °F 67 °F (1971)
Min Temperature 29 °F 25 °F -2 °F (1958)
Degree Days  
Heating Degree Days 25 33  
Month to date heating degree days 338 455  
Since 1 July heating degree days 1611 1596  
Cooling Degree Days 0 0  
Month to date cooling degree days 0 0  
Year to date cooling degree days 980 768  
Moisture  
Dew Point 31 °F    
Average Humidity 69    
Maximum Humidity 85    
Minimum Humidity 53    
Precipitation  
Precipitation 0.01 in 0.07 in 0.85 in (1975)
Month to date precipitation 3.03 1.29  
Year to date precipitation 33.76 36.57  
Sea Level Pressure  
Sea Level Pressure 30.06 in    
Wind  
Wind Speed 4 mph (SE)    
Max Wind Speed 12 mph    
Max Gust Speed 16 mph    
Visibility 10 miles    
Events Rain    
T = Trace of Precipitation, MM = Missing Value Source: NWS Daily Summary

Daily Weather History Graph

Daily Weather History Graph

Search for Another Location

Airport:

Trip Planner

Search our weather history database for the weather conditions in past years. The results will help you decide how hot, cold, wet, or windy it might be!

Date:

Astronomy

Dec. 15, 2012 Rise Set
Actual Time 7:42 AM EST 5:03 PM EST
Civil Twilight 7:11 AM EST 5:34 PM EST
Nautical Twilight 6:37 AM EST 6:08 PM EST
Astronomical Twilight 6:04 AM EST 6:41 PM EST
Moon 9:34 AM EST (12/15) 8:05 PM EST (12/15)
Length of Visible Light 10h 22m
Length of Day
9h 21m
Waxing Crescent, 8% of the Moon is Illuminated
Dec 15
Waxing Crescent
Dec 20
First Quarter
Dec 28
Full
Jan 4
Last Quarter
Jan 11
New

Hourly Weather History & Observations

Time (EST) Temp. Windchill Dew Point Humidity Pressure Visibility Wind Dir Wind Speed Gust Speed Precip Events Conditions
12:53 AM 30.0 °F - 26.1 °F 85% 30.21 in 10.0 mi Calm Calm - N/A   Clear
1:53 AM 30.0 °F - 26.1 °F 85% 30.21 in 10.0 mi Calm Calm - N/A   Clear
2:53 AM 30.9 °F - 26.1 °F 82% 30.21 in 10.0 mi Calm Calm - N/A   Clear
3:53 AM 32.0 °F - 27.0 °F 82% 30.18 in 10.0 mi Calm Calm - N/A   Clear
4:53 AM 30.0 °F - 26.1 °F 85% 30.18 in 10.0 mi Calm Calm - N/A   Clear
5:53 AM 30.0 °F - 26.1 °F 85% 30.17 in 10.0 mi Calm Calm - N/A   Clear
6:53 AM 30.0 °F - 26.1 °F 85% 30.17 in 10.0 mi Calm Calm - N/A   Clear
7:53 AM 30.9 °F - 27.0 °F 85% 30.17 in 10.0 mi Calm Calm - N/A   Clear
8:53 AM 33.1 °F - 28.9 °F 85% 30.17 in 10.0 mi Calm Calm - N/A   Clear
9:53 AM 36.0 °F - 28.9 °F 76% 30.18 in 10.0 mi Calm Calm - N/A   Clear
10:53 AM 41.0 °F 37.1 °F 30.0 °F 65% 30.14 in 10.0 mi ENE 5.8 mph - N/A   Clear
11:53 AM 42.1 °F 37.1 °F 30.9 °F 65% 30.06 in 10.0 mi East 8.1 mph - N/A   Mostly Cloudy
12:53 PM 46.0 °F 43.9 °F 30.9 °F 56% 30.05 in 10.0 mi SSW 4.6 mph - N/A   Clear
1:53 PM 46.9 °F - 30.0 °F 52% 30.04 in 10.0 mi South 4.6 mph - N/A   Clear
2:53 PM 46.0 °F 43.9 °F 30.0 °F 54% 30.00 in 10.0 mi SE 4.6 mph - N/A   Mostly Cloudy
3:53 PM 46.0 °F 41.0 °F 33.1 °F 61% 29.96 in 10.0 mi SE 10.4 mph - 0.00 in Rain Light Rain
4:53 PM 46.0 °F 42.5 °F 33.1 °F 61% 29.95 in 10.0 mi SE 6.9 mph - 0.00 in   Overcast
5:53 PM 46.0 °F 42.5 °F 33.1 °F 61% 29.94 in 10.0 mi South 6.9 mph - 0.00 in Rain Light Rain
6:53 PM 44.1 °F - 36.0 °F 73% 29.94 in 10.0 mi Calm Calm - 0.01 in   Overcast
7:53 PM 44.1 °F 40.8 °F 37.0 °F 76% 29.91 in 10.0 mi SE 5.8 mph - N/A   Overcast
8:53 PM 48.0 °F - 36.0 °F 63% 29.89 in 10.0 mi SSE 9.2 mph - N/A   Overcast
9:53 PM 48.0 °F - 36.0 °F 63% 29.88 in 10.0 mi SSE 6.9 mph - N/A   Overcast
10:53 PM 48.9 °F - 36.0 °F 61% 29.87 in 10.0 mi SSE 10.4 mph - N/A   Overcast
11:53 PM 50.0 °F - 37.0 °F 61% 29.85 in 10.0 mi South 9.2 mph - N/A   Overcast